Location: Newark
(48.1500°N, 13.1167°E)
Time: 03:14:05
(UTC+00:00)

ISS - Pass Details

Date: 17 September 2021
Orbit: 417 x 423 km, 51.6° (Epoch: 20 October)

Event Time Altitude Azimuth Distance (km) Brightness Sun altitude
Rises 17:54:28 0° 200° (SSW) 2,349 0.2 -7.3°
Reaches altitude 10° 17:57:03 10° 179° (S) 1,491 -1.1 -7.7°
Maximum altitude 17:59:17 17° 137° (SE) 1,149 -2.0 -8.0°
Enters shadow 18:01:11 12° 100° (E) 1,408 -1.8 -8.3°
